Location: Erlenbrunn
(49.1717°N, 7.6142°E)
Time: 12:14:10
(UTC+00:00)

YAOGAN 1 - Pass Details

Date: 25 November 2020
Orbit: 618 x 620 km, 97.9° (Epoch: 26 January)

Event Time Altitude Azimuth Distance (km) Brightness Sun altitude
Exits shadow 18:38:50 43° 245° (WSW) 876 3.6 -29.0°
Maximum altitude 18:39:13 44° 261° (W) 860 3.6 -29.0°
Drops below altitude 10° 18:43:24 10° 335° (NNW) 2,000 5.4 -29.7°
Sets 18:45:41 0° 341° (NNW) 2,911 6.3 -30.1°
